Tracking 19827 objects as of 21-Aug-2019
HD Live streaming from Space Station
objects crossing your sky now

FENGYUN 1C DEB

Track FENGYUN 1C DEB now!
10-day predictions


NORAD ID: 30492
Int'l Code: 1999-025AHE
Perigee: 743.4 km
Apogee: 999.7 km
Inclination: 102.3 °
Period: 102.2 minutes
Semi major axis: 7242 km
RCS: 0.0164 m2 (small)
Launch date: May 10, 1999
Source: People's Republic of China (PRC)
Launch site: Taiyaun Space Center, China (TSC)

Note: This is SATELLITE DEBRIS
aabbcc
Your satellite tracking list
Your tracking list is empty




NASA's NSSDC Master Catalog

Two Line Element Set (TLE):
1 30492U 99025AHE 19233.16857196  .00000339  00000-0  20760-3 0  9997
2 30492 102.3459  41.7490 0176960  93.1942 325.7142 14.08537878641877
Source of the keplerian elements: AFSPC